Welcome to The Terminal

Map Downloads:

134 maps found
Name Type Author Date Downloads Rating
Amaplanca II TSC Gwizz 09/10/02 1774 50% (1)
Apple War Ooze TSC Gwizz 21/05/02 2160 0% (0)
Arboria TSC Anders Robert Pilgaard 21/05/02 2055 0% (0)
Atlantis National Railways TSC Anders Robert Pilgaard 21/05/02 3384 100% (2)
Atoll RRT2 Gwizz 21/05/02 1812 70% (2)
Atoll Temple RRT2 Gwizz 21/05/02 1652 0% (0)
Auf Der Flucht RRT2 Robert the "porky" 21/05/02 1869 75% (2)
Aurelia 1862 TSC Anders Robert Pilgaard 21/05/02 1748 0% (0)
Bex TSC Adam 21/05/02 1546 0% (0)
Big Apple II RRT2 PopTop Software 21/05/02 2581 80% (1)
Big Apple IIe TSC Steve Lorenz 21/05/02 1535 0% (0)
Borduria TSC Anders Robert Pilgaard 21/05/02 1658 0% (0)
Britannia RRT2 J Sylvest and GS Bales 21/05/02 2144 0% (0)
Bulvanian Petroleoum TSC Toni Ronkko 24/09/02 2321 50% (2)
Changes In Transportation RRT2 Brian Duarte 21/05/02 2450 0% (0)
Cheryls Valley RRT2 Tigger 21/05/02 1813 0% (0)
Closa RRT2 Darrell 21/05/02 1656 0% (0)
Coal Country RRT2 Sirian 21/05/02 2587 0% (0)
Coast Line TSC Lars Maischak 15/06/03 1796 100% (1)
Colorz! RRT2 Bill Ingram 21/05/02 2018 85% (2)
Copalis RRT2 Mike Burke & Jamie Burnett 21/05/02 2040 95% (2)
Corsairland RRT2 Kent Powderly 21/05/02 2208 0% (0)
County Sodenstein TSC Lars Maischak 15/06/03 1305 60% (1)
Darkmere RRT2 Ian Lewis 21/05/02 1841 0% (0)
Docklands RRT2 Jonathon James Tan 21/05/02 2062 20% (1)
DragonIsle RRT2 Unknown 21/05/02 1931 0% (0)
Edland RRT2 Eddie Bangor 21/05/02 2167 100% (1)
Euphoria TSC PopTop Software 21/05/02 1576 90% (1)
Fantasia TSC Anders Robert Pilgaard 21/05/02 1473 0% (0)
File Island TSC Jimmy Chau 09/12/05 3405 90% (1)
Final Fantasy 7 TSC Matthew Willis 21/05/02 1971 0% (0)
Fisland RRT2 Dave Donaldson 21/05/02 2252 100% (1)
Free Four All RRT2 Sirian 21/05/02 1978 100% (1)
Gateway to Paradise TSC Matthew Asnip 21/05/02 2279 0% (0)
Gateway to Paradise (Light) TSC Matthew Asnip 21/05/02 1088 0% (0)
Gold Rush! RRT2 Andrew Mark Schwartz 21/05/02 2512 0% (0)
Golden Fjords Scenic RRT2 Kent Powderly 21/05/02 1908 0% (0)
Grand Prix RRT2 Sirian 21/05/02 2308 89% (7)
Great Crater RRT2 Kent Powderly 21/05/02 2598 90% (1)
Green Mars RRT2 Gonzo 21/05/02 2380 0% (0)
Grosetania RRT2 Whitey 21/05/02 1664 0% (0)
Hail Sevastia TSC David Masters 21/05/02 1548 45% (2)
Hibirnia TSC Anders Robert Pilgaard 21/05/02 1617 0% (0)
High Desert RRT2 Dave 21/05/02 2510 0% (0)
High Desert 2 TSC A. Gracier 21/05/02 1845 0% (0)
Industrial Fixer Upper TSC Gwizz 21/05/02 1651 70% (1)
Island Conquest TSC James Stevens 21/05/02 1501 0% (0)
Kingdom of Tara TSC Anders Robert Pilgaard 21/05/02 1647 30% (1)
Kua'Apuanii TSC PopTop Software 21/05/02 1392 0% (0)
Lagoria TSC Anders Robert Pilgaard 21/05/02 3880 0% (0)
Lala-land TSC Robbie Langton 19/04/04 1758 0% (0)
Lusitania TSC Anders Robert Pilgaard 21/05/02 1707 50% (1)
Mad King Ed TSC Eddie Bangor 21/05/02 1605 90% (1)
Mad King Ed RRT2 Eddie Bangor 21/05/02 1627 0% (0)
Majode TSC Mark Confer 20/02/04 1777 100% (2)
Making The Grade RRT2 Sirian 21/05/02 2092 100% (2)
Making The Grade RRT2 Sirian 21/05/02 1266 0% (0)
Mars RRT2 James Stevens 21/05/02 1788 0% (0)
Mars TSC James Stevens 21/05/02 1466 0% (0)
Mason County RRT2 Mike Gasaway 21/05/02 1706 0% (0)
Metro31-H RRT2 Unknown 21/05/02 2166 0% (0)
Middle Earth RRT2 Kent Powderly 21/05/02 4462 0% (0)
Military 12 TSC Kraellin 21/05/02 2017 30% (1)
MongoIsland TSC Anders Robert Pilgaard 21/05/02 1394 0% (0)
Montania 1858 TSC Anders Robert Pilgaard 21/05/02 1571 0% (0)
Morietzia RRT2 Unknown 21/05/02 1795 0% (0)
Mtron '99 TSC James Stevens 21/05/02 1241 0% (0)
New Eden TSC Marco Stefanutti 21/05/02 2707 0% (0)
Oceania RRT2 Eckhard Flor 21/05/02 2196 0% (0)
Oceania 1862 TSC Anders Robert Pilgaard 21/05/02 1614 0% (0)
Ourcadia RRT2 Rodolphe Bourgouin 21/05/02 1458 0% (0)
Overpass TSC Steve Lorenz 21/05/02 1148 0% (0)
Overpass & Tunnels TSC David Gross 21/05/02 1584 0% (0)
Paradise 2000 TSC Rick Bottens 21/05/02 1484 0% (0)
Parniath Bridge TSC PopTop Software 21/05/02 1507 0% (0)
Party Machines TSC Lars Maischak 21/05/02 1759 80% (1)
Patagonia RRT2 [pro] 21/05/02 1965 0% (0)
Peninsula RRT2 Anders Robert Pilgaard 21/05/02 1665 0% (0)
Peninsula 2 TSC Anders Robert Pilgaard 03/06/02 2447 0% (0)
Quickie 2A TSC Unknown 21/05/02 1210 0% (0)
Royal Empress TSC Jon Calon 21/05/02 1640 0% (0)
Sarelia TSC Anders Robert Pilgaard 21/05/02 2040 80% (1)
Something Trekky TSC James Stevens 21/05/02 1338 0% (0)
Starship Troopers TSC Steve Lorenz 21/05/02 2171 100% (1)
Strange Glue RRT2 James Stevens 21/05/02 1527 0% (0)
Sylvania TSC Anders Robert Pilgaard 21/05/02 2554 0% (0)
Tanagore Island TSC David Masters 21/05/02 1504 0% (0)
Taresia TSC Anders Robert Pilgaard 03/06/02 1324 0% (0)
Tatooine RRT2 Andy Moorer 21/05/02 2281 0% (0)
Tehos RRT2 Juho Tiettinen 15/06/03 1581 0% (0)
TehoWorld RRT2 Juho Tiettinen 15/06/03 2729 0% (0)
Terra Aqueos RRT2 James Wellham 21/05/02 1936 100% (1)
Tester TSC Steve Lorenz 21/05/02 1342 0% (0)
Tester RRT2 Steve Lorenz 21/05/02 1467 0% (0)
The Darkening 1 TSC James Stevens 21/05/02 1633 80% (1)
The Darkening 2 TSC James Stevens 21/05/02 1346 10% (1)
The Darkening 3: Unite the States TSC James Stevens 21/05/02 1633 90% (1)
The Darkening 4: Floods Legacy TSC James Stevens 21/05/02 1488 0% (0)
The Iron Spike TSC Overlord 15/06/03 2667 0% (0)
The Main Vein RRT2 Derek D 21/05/02 1520 0% (0)
The Mines RRT2 Tony J Frank 21/05/02 2173 0% (0)
The National World TSC Matthew Tam 21/05/02 1737 0% (0)
The World Map TSC Matthew Tam 21/05/02 2578 0% (0)
Tidland TSC James E. Petts 21/05/02 1201 0% (0)
Tolnedran Imperial Railway TSC Richard Lally 21/05/02 1973 0% (0)
Towers Of Hell TSC James Stevens 21/05/02 1258 0% (0)
Train Island RRT2 Jonathan 21/05/02 1522 0% (0)
Treasure Island RRT2 Unknown 21/05/02 2043 0% (0)
Utopia RRT2 Cecil Harper 21/05/02 2098 0% (0)
Utopia TSC Anders Robert Pilgaard 21/05/02 1470 0% (0)
Utopia 2 TSC Anders Robert Pilgaard 21/05/02 1702 0% (0)
Venturia TSC Anders Robert Pilgaard 03/06/02 2572 0% (0)
Vulcano RRT2 Martijn ter Haar 21/05/02 1438 0% (0)
Witch's Route TSC Charles Swain 21/05/02 1327 10% (1)
WNE 01: Map One RRT2 James Stevens 21/05/02 1741 0% (0)
WNE 02: Switzlerland 2099 RRT2 James Stevens 21/05/02 2056 0% (0)
WNE 03: Appleasia RRT2 James Stevens 21/05/02 1669 0% (0)
WNE 04: Begin Again RRT2 James Stevens 21/05/02 1591 0% (0)
WNE 05: Mars Corp RRT2 James Stevens 21/05/02 1576 0% (0)
WNE 06: The Freedom Movement RRT2 James Stevens 21/05/02 1407 0% (0)
WNE 07: Titan: The New Earth? RRT2 James Stevens 21/05/02 1930 0% (0)
WNE 08: Titan: Last Rights RRT2 James Stevens 21/05/02 1671 30% (1)
WNE 09: Erase/Rewind RRT2 James Stevens 21/05/02 1767 0% (0)
WNE 10: Reunification RRT2 James Stevens 21/05/02 1326 0% (0)
WNE 11: Future's End TSC James Stevens 21/05/02 1475 0% (0)
WNE 12: Test Of Time TSC James Stevens 21/05/02 1470 75% (2)
WNE 13: The Awakening RRT2 James Stevens 21/05/02 1494 0% (0)
WNE 14: The Money Pit RRT2 James Stevens 21/05/02 1641 0% (0)
WNE 15: Scorched Earth RRT2 James Stevens 21/05/02 1618 0% (0)
WNE 16: The Launch RRT2 James Stevens 21/05/02 1492 0% (0)
WNE 17: Rising Star RRT2 James Stevens 21/05/02 1331 0% (0)
WNE 18: Cold War RRT2 James Stevens 21/05/02 1599 0% (0)
WNE 19: For Gorwin's Honour RRT2 James Stevens 21/05/02 1643 0% (0)
WNE 20: From Hell's Heart... TSC James Stevens 21/05/02 1252 0% (0)

Site created April 23, 1998. © Jesse Reid, All Rights Reserved, 2003.